Location: Franzen
(48.6167°N, 15.3833°E)
Time: 13:24:08
(UTC+00:00)

Cosmos 1814 Rocket - Pass Details

Date: 22 April 2021
Orbit: 745 x 787 km, 74.1° (Epoch: 16 May)

Event Time Altitude Azimuth Distance (km) Brightness Sun altitude
Rises 21:03:28 0° 338° (NNW) 3,279 8.7 -23.9°
Reaches altitude 10° 21:05:53 10° 340° (NNW) 2,342 7.6 -24.1°
Maximum altitude 21:11:12 71° 65° (ENE) 818 4.0 -24.6°
Enters shadow 21:11:45 65° 108° (ESE) 848 3.9 -24.6°
